[[{"header":{"parameterUnit":"m.s-1","parameterCategory":1,"la1":30.2991,"la2":30.254,"lo1":-89.0895,"lo2":-89.0444,"dy":0.0017,"dx":0.0017,"nx":28,"ny":28,"refTime":"2025-04-07T21:00:00:Z","depth":0,"parameterNumber":2,"parameterNumberName":"U-component_of_WINDS"},"data":[0,0,0,0,0,0,0,0,0,0,0,0,0,0,0,0,0,0,0,0,0,0,0,0,0,0,0,0,0,0,0,0,0,0,0,0,0,0,0,0,0,0,0,0,0,0,0,0,0,0,0,0,0,0,0,0,0,0,1.6043,1.6043,0,1.6072,1.6072,1.6072,1.6066,1.6065,1.6065,1.6064,1.6093,1.6094,1.6096,0,0,0,0,0,0,0,0,0,0,0,0,0,1.5983,1.5984,1.6043,1.6043,1.6044,1.6072,1.6072,1.6073,1.6066,1.6065,1.6065,1.6064,1.6093,1.6094,1.6096,0,0,0,0,0,0,0,0,0,0,0,0,0,1.601,1.5985,1.6043,1.6044,1.6044,1.6072,1.6072,1.6073,1.6066,1.6065,1.6064,1.6064,1.6092,1.6094,1.6096,1.6124,0,0,1.6102,1.6103,0,0,0,0,0,0,0,0,1.6009,1.6013,1.6043,1.6044,1.6044,1.6064,1.6062,1.609,1.6066,1.6058,1.6064,1.6063,1.6084,1.6087,1.6094,1.6126,1.6127,1.6102,1.6103,1.6104,1.6105,0,0,0,0,0,0,0,1.6007,1.6011,1.6054,1.6044,1.6044,1.6043,1.6046,1.6067,1.6075,1.6058,1.6058,1.6062,1.6084,1.6092,1.6095,1.6127,1.6102,1.6104,1.6105,1.6106,1.6185,1.6186,0,0,0,0,0,0,1.6005,1.601,1.6053,1.6055,1.6024,1.6045,1.6048,1.6059,1.6075,1.6077,1.6062,1.6061,1.6089,1.6092,1.6096,1.613,1.6104,1.6106,1.6107,1.6185,1.6186,1.6187,0,0,0,0,0,0,1.6003,1.6009,1.6052,1.6032,1.6038,1.6047,1.6059,1.606,1.6067,1.6078,1.6079,1.6069,1.6089,1.6093,1.6118,1.6131,1.6107,1.6108,1.6183,1.6185,1.6186,1.62,0,0,0,0,0,0,1.6002,1.6008,1.6019,1.6033,1.6039,1.6073,1.606,1.6061,1.6071,1.607,1.6084,1.6086,1.6088,1.6115,1.612,1.6134,1.611,1.6182,1.6184,1.6186,1.6198,1.6202,1.6205,0,0,0,0,0,1.6,1.6021,1.6019,1.6024,1.6052,1.6074,1.6078,1.608,1.6072,1.6083,1.609,1.6085,1.6129,1.6117,1.6123,1.6137,1.6181,1.6184,1.6186,1.6197,1.6201,1.6204,0,0,0,0,0,0,1.6007,1.6023,1.6021,1.6047,1.606,1.6073,1.6086,1.6085,1.6099,1.6098,1.61,1.6104,1.6129,1.6136,1.6122,1.6167,1.6154,1.6157,1.6161,1.6165,1.6168,1.6165,1.6112,0,0,0,0,0,1.6012,1.6029,1.6041,1.6063,1.607,1.6077,1.6087,1.6088,1.6101,1.6106,1.6115,1.6127,1.6144,1.6155,1.6171,1.62,1.6203,1.6213,1.6216,1.6219,1.6221,1.6238,1.6242,1.6194,1.6194,1.6194,0,0,1.6022,1.6033,1.6043,1.6065,1.6075,1.6092,1.6082,1.61,1.6113,1.6109,1.6133,1.614,1.6154,1.6182,1.6194,1.6188,1.6236,1.6221,1.6223,1.6224,1.6241,1.6245,1.6249,1.6195,1.6195,1.6195,0,0,1.6049,1.6059,1.6079,1.6089,1.6104,1.6109,1.6114,1.6129,1.6133,1.6158,1.6155,1.6171,1.62,1.6211,1.622,1.6254,1.6251,1.6259,1.6275,1.6292,1.6295,1.6299,1.6311,1.6316,1.6262,1.6262,1.6262,0,1.6059,1.6085,1.6089,1.6108,1.6119,1.6117,1.6137,1.6147,1.6167,1.6174,1.6168,1.6205,1.6214,1.6244,1.6253,1.6261,1.6267,1.6257,1.6295,1.6298,1.6301,1.6313,1.6318,1.6263,1.6263,1.6263,1.6263,0,1.6098,1.6116,1.613,1.615,1.6162,1.6182,1.6189,1.6201,1.6202,1.6209,1.6234,1.6246,1.6265,1.6273,1.6273,1.6304,1.6299,1.6294,1.6281,1.6307,1.6318,1.6323,1.6264,1.6264,1.6264,1.6263,0,0,1.6128,1.6151,1.6156,1.6166,1.6184,1.6198,1.6219,1.6238,1.6248,1.6263,1.628,1.6306,1.6301,1.6312,1.6314,1.6329,1.6356,1.6321,1.6322,1.6327,1.639,1.6394,1.6399,1.6354,1.6355,1.6356,1.6389,0,1.6157,1.6192,1.6197,1.6229,1.6247,1.6246,1.6265,1.6278,1.6285,1.6301,1.6309,1.6327,1.6319,1.6326,1.6341,1.6349,1.6368,1.6347,1.6371,1.6371,1.6366,1.6405,1.6409,1.644,1.6394,1.6394,1.6395,0,1.6194,1.621,1.6244,1.6261,1.6268,1.6284,1.6303,1.6319,1.6334,1.6339,1.6352,1.6353,1.6375,1.6363,1.6394,1.6379,1.639,1.6396,1.6397,1.6398,1.6384,1.6407,1.6449,1.6454,1.6402,1.6401,1.6401,0,1.6213,1.6243,1.6268,1.6276,1.6296,1.6308,1.6317,1.6332,1.6343,1.636,1.6368,1.6387,1.6397,1.6412,1.6419,1.6409,1.645,1.6438,1.6454,1.6454,1.6462,1.6461,1.6506,1.647,1.647,1.6469,1.6469,0,1.6243,1.6264,1.6276,1.6291,1.6315,1.6321,1.6345,1.6354,1.6367,1.6385,1.6386,1.6402,1.641,1.6428,1.6434,1.6459,1.6464,1.6468,1.6469,1.6467,1.6467,1.6473,1.6471,1.6471,1.647,1.647,1.647,0,1.6268,1.6277,1.6304,1.6321,1.6326,1.6343,1.6359,1.6374,1.6381,1.6403,1.6409,1.6421,1.6442,1.6451,1.6477,1.6481,1.651,1.6509,1.6504,1.6505,1.6521,1.6519,1.657,1.6578,1.6537,1.6538,1.6538,0,1.6286,1.6302,1.6322,1.6334,1.6344,1.6363,1.6375,1.6383,1.6396,1.6416,1.6429,1.645,1.6468,1.6502,1.6513,1.6533,1.6533,1.655,1.6536,1.6535,1.6534,1.6532,1.6534,1.6552,1.6553,1.6553,1.6553,0,1.6318,1.6323,1.634,1.636,1.6375,1.6391,1.6407,1.6417,1.6427,1.6442,1.6464,1.6477,1.6505,1.6526,1.6547,1.6557,1.6557,1.6558,1.6563,1.6561,1.6557,1.656,1.6511,1.6556,1.6556,1.6556,1.6556,1.6555,1.634,1.6355,1.6372,1.6392,1.6405,1.642,1.6436,1.6446,1.6464,1.6487,1.6491,1.6515,1.6532,1.6561,1.6572,1.6591,1.6587,1.6594,1.6595,1.6597,1.6598,1.6555,1.6595,1.6595,1.6595,1.6595,1.6595,0,1.6372,1.6384,1.6402,1.6425,1.6441,1.6441,1.6459,1.6472,1.6493,1.6509,1.6527,1.6553,1.6575,1.6589,1.6611,1.6623,1.6624,1.6629,1.6628,1.663,1.66,1.6594,1.6628,1.6628,1.6628,1.6628,1.6628,1.6628,1.6391,1.6416,1.6423,1.6455,1.6466,1.649,1.65,1.6515,1.6528,1.6557,1.6575,1.6584,1.66,1.6623,1.6644,1.6647,1.6655,1.666,1.6664,1.6635,1.6632,1.6629,1.6623,1.6662,1.6662,1.6692,1.6692,1.6692]},{"header":{"parameterUnit":"m.s-1","parameterCategory":1,"la1":30.2991,"la2":30.254,"lo1":-89.0895,"lo2":-89.0444,"dy":0.0017,"dx":0.0017,"nx":28,"ny":28,"refTime":"2025-04-07T21:00:00:Z","depth":0,"parameterNumber":3,"parameterNumberName":"V-component_of_WINDS"},"data":[0,0,0,0,0,0,0,0,0,0,0,0,0,0,0,0,0,0,0,0,0,0,0,0,0,0,0,0,0,0,0,0,0,0,0,0,0,0,0,0,0,0,0,0,0,0,0,0,0,0,0,0,0,0,0,0,0,0,-7.7513,-7.7515,0,-7.77,-7.7702,-7.7704,-7.7624,-7.7619,-7.7615,-7.7611,-7.7796,-7.7805,-7.7814,0,0,0,0,0,0,0,0,0,0,0,0,0,-7.7079,-7.7088,-7.7512,-7.7515,-7.7517,-7.77,-7.7702,-7.7705,-7.7625,-7.7619,-7.7614,-7.7609,-7.7793,-7.7804,-7.7815,0,0,0,0,0,0,0,0,0,0,0,0,0,-7.7267,-7.709,-7.7512,-7.75,-7.75,-7.7699,-7.7702,-7.7705,-7.7626,-7.7619,-7.7612,-7.7606,-7.7789,-7.7803,-7.7816,-7.8037,0,0,-7.7858,-7.7864,0,0,0,0,0,0,0,0,-7.7256,-7.7283,-7.7499,-7.7501,-7.7502,-7.7632,-7.7617,-7.7816,-7.7628,-7.7578,-7.761,-7.7603,-7.7746,-7.7763,-7.7813,-7.8045,-7.8053,-7.7859,-7.7868,-7.7874,-7.7877,0,0,0,0,0,0,0,-7.7243,-7.7274,-7.7586,-7.7502,-7.7504,-7.7482,-7.7501,-7.7654,-7.7698,-7.7582,-7.7576,-7.76,-7.7746,-7.78,-7.7817,-7.8056,-7.7859,-7.7871,-7.788,-7.7885,-7.8476,-7.8483,0,0,0,0,0,0,-7.7231,-7.7264,-7.758,-7.7592,-7.736,-7.7496,-7.7517,-7.7597,-7.7696,-7.7705,-7.7606,-7.7596,-7.778,-7.7801,-7.7823,-7.8087,-7.7873,-7.7886,-7.7894,-7.8469,-7.8478,-7.8486,0,0,0,0,0,0,-7.7222,-7.726,-7.7573,-7.7427,-7.7465,-7.751,-7.76,-7.7604,-7.7658,-7.7714,-7.772,-7.7654,-7.7775,-7.7804,-7.7984,-7.8092,-7.7893,-7.7905,-7.846,-7.8472,-7.8482,-7.8617,0,0,0,0,0,0,-7.721,-7.7258,-7.7343,-7.7429,-7.7473,-7.7734,-7.7607,-7.7613,-7.7683,-7.7672,-7.7761,-7.7769,-7.7772,-7.7964,-7.7998,-7.8107,-7.7916,-7.8451,-7.8465,-7.8478,-7.8603,-7.8631,-7.8655,0,0,0,0,0,-7.7195,-7.7373,-7.7348,-7.7387,-7.7582,-7.774,-7.7765,-7.7767,-7.7692,-7.7777,-7.7813,-7.7766,-7.8075,-7.7983,-7.8021,-7.8136,-7.8444,-7.8461,-7.8477,-7.8591,-7.8625,-7.8655,0,0,0,0,0,0,-7.7297,-7.7384,-7.7358,-7.7569,-7.7648,-7.7726,-7.7834,-7.7804,-7.7904,-7.7889,-7.7885,-7.7906,-7.8092,-7.8132,-7.8028,-7.8353,-7.8247,-7.8273,-7.8321,-7.8354,-7.838,-7.8366,-7.7927,0,0,0,0,0,-7.7344,-7.7467,-7.7536,-7.7716,-7.7757,-7.7789,-7.7858,-7.7853,-7.7934,-7.7966,-7.8015,-7.8093,-7.8207,-7.8283,-7.8391,-7.8608,-7.8625,-7.8705,-7.8731,-7.8752,-7.8774,-7.889,-7.8926,-7.8541,-7.8541,-7.8541,0,0,-7.7442,-7.7505,-7.7583,-7.7738,-7.7798,-7.7924,-7.7818,-7.7955,-7.8048,-7.7986,-7.816,-7.8199,-7.8285,-7.8485,-7.8575,-7.8523,-7.8884,-7.8774,-7.8791,-7.8801,-7.8911,-7.8947,-7.898,-7.8553,-7.8551,-7.8549,0,0,-7.7686,-7.7747,-7.7903,-7.7966,-7.806,-7.808,-7.8117,-7.8201,-7.8224,-7.8399,-7.8355,-7.8464,-7.8661,-7.8725,-7.8783,-7.905,-7.901,-7.9085,-7.9222,-7.9335,-7.9366,-7.9392,-7.9487,-7.9521,-7.9106,-7.9107,-7.9107,0,-7.7796,-7.7986,-7.7986,-7.8128,-7.8197,-7.8148,-7.8305,-7.8365,-7.8489,-7.8536,-7.8477,-7.8724,-7.8779,-7.8992,-7.9057,-7.9106,-7.9147,-7.9075,-7.9362,-7.9389,-7.9414,-7.9503,-7.9539,-7.9115,-7.9114,-7.9113,-7.9113,0,-7.8116,-7.8248,-7.8363,-7.8485,-7.8566,-7.8715,-7.8736,-7.8817,-7.8805,-7.883,-7.9008,-7.9072,-7.9193,-7.9242,-7.9231,-7.9454,-7.9419,-7.9361,-7.9255,-7.9459,-7.9543,-7.9578,-7.9127,-7.9124,-7.9122,-7.912,0,0,-7.843,-7.8551,-7.8593,-7.8647,-7.8747,-7.8848,-7.8993,-7.9112,-7.9182,-7.9268,-7.9388,-7.9556,-7.9504,-7.957,-7.9564,-7.9664,-7.987,-7.9593,-7.9595,-7.9642,-8.0118,-8.0161,-8.0201,-7.9844,-7.985,-7.9856,-8.011,0,-7.8681,-7.8938,-7.8942,-7.9177,-7.9298,-7.9253,-7.9379,-7.9452,-7.948,-7.9585,-7.9614,-7.9733,-7.9655,-7.9694,-7.979,-7.9825,-7.9965,-7.9806,-7.9954,-7.9959,-7.9934,-8.0245,-8.0291,-8.0528,-8.0143,-8.0149,-8.0153,0,-7.9008,-7.9107,-7.9355,-7.9436,-7.9487,-7.9601,-7.971,-7.9811,-7.9892,-7.9905,-7.9979,-7.9959,-8.0104,-7.9993,-8.0192,-8.0084,-8.0144,-8.017,-8.0179,-8.0193,-8.0068,-8.0266,-8.0604,-8.0639,-8.0205,-8.0201,-8.0197,0,-7.9212,-7.9406,-7.958,-7.9628,-7.9727,-7.9807,-7.9852,-7.9927,-7.9998,-8.0092,-8.0138,-8.0248,-8.0307,-8.0391,-8.04,-8.0319,-8.06,-8.049,-8.0613,-8.0613,-8.0674,-8.067,-8.1026,-8.0714,-8.0713,-8.0713,-8.0712,0,-7.9491,-7.9645,-7.9672,-7.9779,-7.9948,-7.995,-8.0117,-8.0154,-8.0221,-8.0332,-8.0299,-8.0404,-8.0409,-8.0516,-8.0523,-8.0686,-8.0713,-8.0726,-8.0726,-8.0729,-8.0728,-8.0768,-8.0752,-8.0722,-8.072,-8.0718,-8.0717,0,-7.9747,-7.9772,-7.9958,-8.0037,-8.006,-8.0182,-8.0248,-8.0348,-8.0372,-8.0513,-8.0546,-8.0583,-8.0707,-8.0724,-8.0868,-8.0872,-8.1068,-8.1051,-8.1042,-8.1039,-8.1161,-8.1149,-8.1555,-8.1608,-8.1262,-8.1265,-8.1268,0,-7.9924,-8.0042,-8.0133,-8.0206,-8.0256,-8.0374,-8.0447,-8.0452,-8.0529,-8.0629,-8.0717,-8.0838,-8.0935,-8.1134,-8.1172,-8.1281,-8.1266,-8.1401,-8.1282,-8.1281,-8.1268,-8.1261,-8.1271,-8.1424,-8.1428,-8.1431,-8.1433,0,-8.0236,-8.0242,-8.035,-8.0462,-8.055,-8.0638,-8.0721,-8.0782,-8.0797,-8.0885,-8.1012,-8.1087,-8.1235,-8.1354,-8.1462,-8.1505,-8.1472,-8.147,-8.1504,-8.1509,-8.1498,-8.1505,-8.1104,-8.1461,-8.1458,-8.1456,-8.1455,-8.1453,-8.0457,-8.0559,-8.0639,-8.076,-8.0823,-8.0901,-8.0999,-8.1036,-8.1142,-8.1265,-8.126,-8.14,-8.1475,-8.1618,-8.1668,-8.1775,-8.1731,-8.1781,-8.1793,-8.1805,-8.1817,-8.1482,-8.1795,-8.1794,-8.1793,-8.1793,-8.1792,0,-8.0766,-8.0816,-8.0927,-8.1044,-8.1139,-8.1101,-8.119,-8.127,-8.1394,-8.1469,-8.1565,-8.171,-8.1826,-8.1873,-8.1986,-8.2062,-8.205,-8.2092,-8.2086,-8.2096,-8.1851,-8.181,-8.21,-8.21,-8.21,-8.21,-8.21,-8.21,-8.0938,-8.1108,-8.1124,-8.1324,-8.1371,-8.1509,-8.1563,-8.1634,-8.1694,-8.1858,-8.1955,-8.1985,-8.2048,-8.2165,-8.2268,-8.2279,-8.2321,-8.237,-8.2374,-8.2144,-8.2113,-8.2084,-8.2045,-8.238,-8.238,-8.261,-8.2612,-8.2614]}]]